| time (UTC) | temp C | wind direction | speed KPH | gust KPH | rain 1hr cm | rain 24hr cm | rain mn cm | humidity % | barometer mb |
| 20260504170328 | 7 | 334 | 1.6 | 4.8 | 0.00 | 1.24 | 0.00 | 74 | 1015.4 |
| 20260504160329 | 7 | 325 | 14.5 | 24.1 | 0.00 | 1.45 | 0.00 | 73 | 1014.2 |
| 20260504150333 | 8 | 309 | 19.3 | 25.7 | 0.00 | 1.57 | 0.00 | 69 | 1013.0 |
| 20260504140330 | 10 | 30 | 6.4 | 20.9 | 0.00 | 1.70 | 1.47 | 65 | 1012.5 |
| 20260504130331 | 11 | 10 | 9.7 | 19.3 | 0.00 | 1.78 | 1.47 | 61 | 1011.6 |
| 20260504110329 | 12 | 274 | 0.0 | 16.1 | 0.00 | 2.06 | 1.47 | 57 | 1008.1 |
| 20260504100332 | 12 | 246 | 17.7 | 40.2 | 0.00 | 2.16 | 1.47 | 55 | 1005.8 |
| 20260504081341 | 15 | 264 | 19.3 | 45.1 | 0.00 | 2.16 | 1.47 | 55 | 1004.8 |
| 20260504080331 | 15 | 246 | 16.1 | 38.6 | 0.00 | 2.16 | 1.47 | 56 | 1004.5 |
| 20260504070328 | 17 | 310 | 27.4 | 35.4 | 0.00 | 2.16 | 1.47 | 53 | 1003.7 |
| 20260504050330 | 20 | 264 | 19.3 | 35.4 | 0.00 | 2.16 | 1.47 | 51 | 1001.0 |
| 20260504045340 | 19 | 269 | 20.9 | 45.1 | 0.00 | 2.16 | 1.47 | 51 | 1000.8 |
| 20260504044328 | 19 | 269 | 24.1 | 38.6 | 0.00 | 2.16 | 1.47 | 51 | 1000.5 |
| 20260504043336 | 19 | 280 | 19.3 | 38.6 | 0.00 | 2.16 | 1.47 | 52 | 1000.5 |
| 20260504042328 | 20 | 268 | 12.9 | 30.6 | 0.00 | 2.16 | 1.47 | 50 | 1000.0 |
| 20260504041338 | 21 | 241 | 14.5 | 43.5 | 0.00 | 2.16 | 1.47 | 47 | 1000.3 |
| 20260504040328 | 21 | 265 | 9.7 | 20.9 | 0.00 | 2.16 | 1.47 | 45 | 1000.0 |
| 20260504035338 | 22 | 222 | 19.3 | 32.2 | 0.00 | 2.16 | 1.47 | 43 | 999.9 |
| 20260504034328 | 21 | 213 | 16.1 | 37.0 | 0.00 | 2.16 | 1.47 | 44 | 999.9 |
| 20260504033337 | 21 | 248 | 19.3 | 40.2 | 0.00 | 2.16 | 1.47 | 47 | 999.8 |
| 20260504032325 | 21 | 244 | 25.7 | 37.0 | 0.00 | 2.16 | 1.47 | 46 | 1000.2 |
| 20260504031338 | 21 | 188 | 14.5 | 37.0 | 0.00 | 2.16 | 1.47 | 46 | 1000.1 |
| 20260504030328 | 21 | 207 | 9.7 | 25.7 | 0.00 | 2.16 | 1.47 | 52 | 1000.2 |
| 20260504025337 | 21 | 159 | 17.7 | 33.8 | 0.00 | 2.16 | 1.47 | 54 | 1000.4 |
| 20260504024325 | 20 | 276 | 11.3 | 25.7 | 0.00 | 2.16 | 1.47 | 55 | 1000.2 |
| 20260504023339 | 20 | 192 | 19.3 | 27.4 | 0.00 | 2.16 | 1.47 | 54 | 1000.2 |
| 20260504022327 | 20 | 206 | 8.0 | 25.7 | 0.00 | 2.16 | 1.47 | 56 | 1000.5 |
| 20260504021335 | 20 | 213 | 19.3 | 30.6 | 0.00 | 2.16 | 1.47 | 54 | 1000.5 |
| 20260504020328 | 20 | 174 | 16.1 | 35.4 | 0.00 | 2.16 | 1.47 | 54 | 1000.8 |
| 20260504015337 | 21 | 214 | 16.1 | 33.8 | 0.00 | 2.16 | 1.47 | 55 | 1000.9 |
| 20260504014327 | 21 | 150 | 16.1 | 30.6 | 0.00 | 2.16 | 1.47 | 56 | 1001.0 |
| 20260504013336 | 20 | 165 | 12.9 | 33.8 | 0.00 | 2.16 | 1.47 | 57 | 1000.9 |
| 20260504012330 | 20 | 180 | 16.1 | 27.4 | 0.00 | 2.16 | 1.47 | 59 | 1001.1 |
| 20260504011339 | 20 | 217 | 14.5 | 30.6 | 0.00 | 2.16 | 1.47 | 58 | 1001.2 |
| 20260504010329 | 20 | 183 | 16.1 | 35.4 | 0.00 | 2.16 | 1.47 | 60 | 1001.1 |
| 20260504005336 | 20 | 210 | 19.3 | 40.2 | 0.00 | 2.16 | 1.47 | 61 | 1001.1 |
| 20260504004328 | 20 | 150 | 19.3 | 30.6 | 0.00 | 2.16 | 1.47 | 62 | 1001.3 |
| 20260504003337 | 20 | 233 | 17.7 | 35.4 | 0.00 | 2.16 | 1.47 | 63 | 1001.1 |
| 20260504002326 | 19 | 169 | 16.1 | 32.2 | 0.00 | 2.16 | 1.47 | 64 | 1001.1 |
| 20260504001335 | 19 | 214 | 16.1 | 33.8 | 0.00 | 2.16 | 1.47 | 64 | 1001.0 |
| 20260504000328 | 19 | 191 | 16.1 | 41.8 | 0.00 | 2.16 | 1.47 | 66 | 1001.2 |
| 20260503235337 | 19 | 187 | 14.5 | 41.8 | 0.00 | 2.16 | 1.47 | 67 | 1000.8 |
| 20260503234325 | 19 | 245 | 17.7 | 33.8 | 0.00 | 2.16 | 1.47 | 67 | 1000.8 |
| 20260503233340 | 18 | 213 | 16.1 | 33.8 | 0.00 | 2.16 | 1.47 | 70 | 1000.8 |
| 20260503232328 | 18 | 192 | 12.9 | 29.0 | 0.00 | 2.16 | 1.47 | 72 | 1000.9 |
| 20260503231337 | 18 | 149 | 14.5 | 24.1 | 0.00 | 2.16 | 1.47 | 72 | 1001.0 |
| 20260503230327 | 18 | 189 | 14.5 | 25.7 | 0.00 | 2.16 | 1.47 | 74 | 1000.8 |
| 20260503225340 | 18 | 225 | 11.3 | 25.7 | 0.00 | 2.16 | 1.47 | 75 | 1000.7 |
| 20260503224329 | 18 | 159 | 6.4 | 19.3 | 0.00 | 2.16 | 1.47 | 77 | 1000.6 |
| 20260503223339 | 18 | 171 | 9.7 | 22.5 | 0.00 | 2.16 | 1.47 | 77 | 1000.4 |
| 20260503222328 | 17 | 146 | 4.8 | 16.1 | 0.00 | 2.16 | 1.47 | 83 | 1000.3 |
| 20260503221341 | 16 | 198 | 4.8 | 12.9 | 0.00 | 2.16 | 1.47 | 88 | 1000.4 |
| 20260503220331 | 15 | 174 | 6.4 | 19.3 | 0.03 | 2.16 | 1.47 | 87 | 1000.2 |
| 20260503215339 | 15 | 114 | 9.7 | 14.5 | 0.03 | 2.16 | 1.47 | 87 | 1000.0 |
| 20260503214332 | 15 | 152 | 6.4 | 11.3 | 0.05 | 2.16 | 1.47 | 87 | 1000.3 |
| 20260503213342 | 15 | 257 | 4.8 | 9.7 | 0.05 | 2.16 | 1.47 | 88 | 1000.4 |
| 20260503212331 | 15 | 303 | 0.0 | 11.3 | 0.05 | 2.16 | 1.47 | 88 | 1000.5 |
| 20260503211341 | 15 | 286 | 6.4 | 14.5 | 0.08 | 2.16 | 1.47 | 88 | 1000.3 |
| 20260503210333 | 15 | 128 | 0.0 | 6.4 | 0.05 | 2.13 | 1.45 | 88 | 999.6 |
| 20260503205342 | 16 | 44 | 3.2 | 8.0 | 0.10 | 2.13 | 1.45 | 88 | 999.5 |
| 20260503204329 | 16 | 248 | 4.8 | 19.3 | 0.10 | 2.11 | 1.45 | 86 | 999.4 |
| 20260503203339 | 18 | 312 | 9.7 | 19.3 | 0.13 | 2.11 | 1.42 | 86 | 999.0 |
| 20260503202330 | 18 | 168 | 9.7 | 30.6 | 0.18 | 2.11 | 1.42 | 86 | 998.1 |
| 20260503201338 | 18 | 157 | 17.7 | 37.0 | 0.23 | 2.08 | 1.40 | 87 | 998.0 |
| 20260503200328 | 18 | 198 | 9.7 | 33.8 | 0.30 | 2.08 | 1.40 | 87 | 997.8 |
| 20260503195336 | 18 | 148 | 14.5 | 27.4 | 0.25 | 2.03 | 1.37 | 88 | 997.6 |
| 20260503194330 | 17 | 161 | 17.7 | 32.2 | 0.23 | 2.03 | 1.35 | 88 | 997.3 |
| 20260503193338 | 17 | 184 | 14.5 | 30.6 | 0.23 | 1.98 | 1.30 | 88 | 997.1 |
| 20260503192328 | 17 | 186 | 12.9 | 30.6 | 0.23 | 1.93 | 1.24 | 88 | 997.4 |
| 20260503191340 | 17 | 151 | 20.9 | 38.6 | 0.20 | 1.85 | 1.17 | 87 | 997.5 |
| 20260503190330 | 17 | 166 | 16.1 | 33.8 | 0.15 | 1.78 | 1.09 | 87 | 997.8 |
| 20260503185340 | 17 | 204 | 17.7 | 32.2 | 0.15 | 1.78 | 1.09 | 88 | 997.5 |
| 20260503184328 | 17 | 176 | 16.1 | 32.2 | 0.15 | 1.78 | 1.09 | 88 | 997.8 |
| 20260503183340 | 17 | 111 | 16.1 | 35.4 | 0.18 | 1.75 | 1.07 | 88 | 997.9 |
| 20260503182328 | 17 | 195 | 12.9 | 27.4 | 0.28 | 1.68 | 0.99 | 87 | 998.2 |
| 20260503181338 | 17 | 148 | 20.9 | 37.0 | 0.33 | 1.65 | 0.99 | 87 | 998.2 |
| 20260503180327 | 16 | 184 | 19.3 | 32.2 | 0.41 | 1.65 | 0.97 | 88 | 998.3 |
| 20260503175340 | 16 | 164 | 17.7 | 33.8 | 0.51 | 1.65 | 0.97 | 88 | 998.6 |
| 20260503174329 | 16 | 169 | 17.7 | 35.4 | 0.56 | 1.63 | 0.94 | 88 | 999.0 |
| 20260503173338 | 16 | 146 | 12.9 | 37.0 | 0.58 | 1.55 | 0.89 | 88 | 999.6 |
| 20260503172331 | 16 | 196 | 14.5 | 43.5 | 0.46 | 1.40 | 0.71 | 88 | 999.6 |
| 20260503171341 | 15 | 153 | 12.9 | 27.4 | 0.43 | 1.35 | 0.66 | 88 | 1000.0 |